Regional Weather Roundup
Issued by NWS Northern Indiana

Home | Current Version | Previous Version | Text Only | Print | Product List | Glossary Off
Versions: 1 2 3 4 5 6 7 8 9 10 11 12 13 14 15 16 17 18 19 20 21 22 23 24 25 26 27 28 29 30 31 32 33 34 35 36 37 38 39 40 41 42 43 44 45 46 47 48 49 50

000
ASUS43 KIWX 282300
RWRIWX

KIWX WEATHER ROUNDUP
NATIONAL WEATHER SERVICE NORTHERN INDIANA
700 PM EDT SUN AUG 28 2016

NOTE: "FAIR" INDICATES FEW OR NO CLOUDS BELOW 12,000 FEET WITH NO
SIGNIFICANT WEATHER AND/OR OBSTRUCTIONS TO VISIBILITY.

* THESE STATIONS ARE NOT UNDER NWS QUALITY CONTROL. THEY ALSO MAY NOT
  REPORT WEATHER SUCH AS PRECIPITATION OR FOG.

INZ001>027-290000-
NORTHERN INDIANA

CITY           SKY/WX    TMP DP  RH WIND       PRES   REMARKS
GARY*          PTSUNNY   77  73  88 NE8       30.18R
KNOX*          PTSUNNY   73  52  46 CALM      30.17R
SOUTH BEND     CLOUDY    78  72  81 CALM      30.18S
GOSHEN         CLOUDY    75  70  84 E3        30.18S
MONTICELLO*    PTSUNNY   77  65  67 NE3       30.15F
ANGOLA*        SUNNY     75  68  78 W3        30.18R
FORT WAYNE     CLOUDY    77  66  68 E8        30.18R
PERU/GRISSOM   PTSUNNY   72  66  83 E9        30.15F

$$
INZ028>050-290000-
CENTRAL INDIANA

CITY           SKY/WX    TMP DP  RH WIND       PRES   REMARKS
LAFAYETTE      TSTM      74  71  91 N9        30.14F FOG
KOKOMO*        CLOUDY    73  66  78 NE18G24   30.16F
MUNCIE*        CLOUDY    85  74  69 NE8       30.16S
INDIANAPOLIS   CLOUDY    83  68  60 NE8       30.14S

$$
MIZ043>046-050>051-056>058-064>065-071>073-077>080-290000-
SOUTHWEST LOWER MICHIGAN

CITY           SKY/WX    TMP DP  RH WIND       PRES   REMARKS
BATTLE CREEK   MOSUNNY   80  71  74 N7        30.18F
BENTON HARBOR  PTSUNNY   77  66  68 NE5       30.17S
COLDWATER*     CLOUDY    79  71  74 CALM      30.17F
HILLSDALE*     CLOUDY    77  71  83 CALM      30.18F
HOLLAND        SUNNY     78  65  63 NW6       30.19F
GRAND RAPIDS   MOSUNNY   83  64  52 NW5       30.18F
KALAMAZOO      PTSUNNY   84  69  60 N6        30.17F
STURGIS*       MOSUNNY   77  73  86 SW5       30.18R

$$
OHZ001>008-015>018-024>025-290000-
NORTHWEST OHIO

CITY           SKY/WX    TMP DP  RH WIND       PRES   REMARKS
DEFIANCE       CLOUDY    77  69  76 VRB5      30.15F
FINDLAY        SUNNY     83  66  56 N9        30.16S
TOLEDO EXPRESS CLOUDY    77  73  87 CALM      30.17S
TOLEDO METCALF CLOUDY    81  73  76 NW3       30.17S
LIMA           MOSUNNY   80  72  76 N7        30.17S

$$
AND FOR LAKE MICHIGAN COASTAL AND OPEN LAKE BUOY OBSERVATIONS

STATION/POSITION TEMP    WIND        PRES    VSBY  WAVE
                 AIR SEA DIR/SP/G                  HT/PER
                 (F)     (DEG/KT/KT) (MB)    (MI)  (FT/S)
CALUMET HARBOR    74                 1021.0F
MICHIGAN CITY     74      30/ 10/ 11   N/A
BURNS HARBOR      75      70/  9/ 13 1021.7F
SAINT JOSEPH      77      20/  9/ 12 1022.0F
SOUTH LAKE BUOY   72 76   40/  8/  8 1021.7          1
4 MI NW BRIDGMAN  75 76   10/ 10/ 14 1021.2F         2/ 2
MICHIGAN CITY     75 77   40/ 10/ 12   N/A           1/ 3

$$
&&




USA.gov is the U.S. government's official web portal to all federal, state and local government web resources and services.